This is the latest recevied weather packets stored in our database for station/object SR3WXA. If no packets are shown the sender has not sent any weather packets the latest 10 day(s).
| Time | Temp. | Humidity | Pressure | Rain* | Wind** | Luminosity | Snow |
|---|---|---|---|---|---|---|---|
| 1777704059 | 16.67° C | 56% | 1025.4 hPa | 0 mm | - | 302 W/m² | - |
| 1777703790 | 16.67° C | 56% | 1025.4 hPa | 0 mm | - | 35 W/m² | - |
| 1777703759 | 16.67° C | 56% | 1025.4 hPa | 0 mm | - | 35 W/m² | - |
| 1777703460 | 16.67° C | 58% | 1025.5 hPa | 0 mm | - | 241 W/m² | - |
| 1777703191 | 16.11° C | 58% | 1025.5 hPa | 0 mm | - | 33 W/m² | - |
| 1777703159 | 16.11° C | 58% | 1025.5 hPa | 0 mm | - | 33 W/m² | - |
| 1777702860 | 16.11° C | 59% | 1025.6 hPa | 0 mm | - | 258 W/m² | - |
| 1777702591 | 15.56° C | 59% | 1025.5 hPa | 0 mm | - | 244 W/m² | - |
| 1777702559 | 15.56° C | 59% | 1025.5 hPa | 0 mm | - | 244 W/m² | - |
| 1777702259 | 15.56° C | 61% | 1025.6 hPa | 0 mm | - | 204 W/m² | - |
| 1777702002 | 15° C | 61% | 1025.6 hPa | 0 mm | - | 253 W/m² | - |
| 1777701960 | 15° C | 61% | 1025.6 hPa | 0 mm | - | 253 W/m² | - |
| 1777701659 | 15° C | 62% | 1025.5 hPa | 0 mm | - | 250 W/m² | - |
| 1777701391 | 14.44° C | 63% | 1025.5 hPa | 0 mm | - | 199 W/m² | - |
| 1777701359 | 14.44° C | 63% | 1025.5 hPa | 0 mm | - | 199 W/m² | - |
| 1777700883 | 14.44° C | 64% | 1025.5 hPa | 0 mm | - | 200 W/m² | - |
| 1777700583 | 14.44° C | 65% | 1025.6 hPa | 0 mm | - | 267 W/m² | - |
| 1777700283 | 13.89° C | 66% | 1025.6 hPa | 0 mm | - | 225 W/m² | - |
| 1777699684 | 13.89° C | 69% | 1025.6 hPa | 0 mm | - | 139 W/m² | - |
| 1777699385 | 13.33° C | 71% | 1025.5 hPa | 0 mm | - | 100 W/m² | - |
| 1777699084 | 13.33° C | 73% | 1025.5 hPa | 0 mm | - | 111 W/m² | - |
| 1777698823 | 12.78° C | 75% | 1025.6 hPa | 0 mm | - | 188 W/m² | - |
| 1777698784 | 12.78° C | 75% | 1025.6 hPa | 0 mm | - | 188 W/m² | - |
| 1777697977 | 11.67° C | 80% | 1025.5 hPa | 0 mm | - | 116 W/m² | - |
| 1777697941 | 11.67° C | 80% | 1025.5 hPa | 0 mm | - | 116 W/m² | - |
* Rain latest hour (hover to see other rain measurements)
** Current wind speed in m/s (hover to see current wind gust speed)